LRCK Weather Reports


Display with metric or nautical units.
time (UTC)temp
F
wind
direction
speed
MPH
gust
MPH
rain 1hr
in
rain 24hr
in
rain mn
in
humidity
%
barometer
mb
20260505010317 41 330 5.0 0.0 0.00 0.00 0.00 76 1015.0
20260505004817 45 330 5.0 0.0 0.00 0.00 0.00 66 1015.0
20260505003317 45 330 5.0 0.0 0.00 0.00 0.00 66 1015.0
20260505001817 43 320 7.0 0.0 0.00 0.00 0.00 71 1015.0
20260505000317 43 320 7.0 0.0 0.00 0.00 0.00 71 1015.0
20260504234817 45 330 6.0 0.0 0.00 0.00 0.00 66 1015.0
20260504233317 45 330 6.0 0.0 0.00 0.00 0.00 66 1015.0
20260504231817 45 320 6.0 0.0 0.00 0.00 0.00 66 1015.0
20260504230317 45 320 6.0 0.0 0.00 0.00 0.00 66 1015.0
20260504224817 46 300 7.0 0.0 0.00 0.00 0.00 66 1015.0
20260504223317 46 300 7.0 0.0 0.00 0.00 0.00 66 1015.0
20260504221840 46 290 9.0 0.0 0.00 0.00 0.00 66 1015.0
20260504220317 46 290 9.0 0.0 0.00 0.00 0.00 66 1015.0
20260504214817 45 300 7.0 0.0 0.00 0.00 0.00 71 1015.0
20260504213333 45 300 7.0 0.0 0.00 0.00 0.00 71 1015.0
20260504211817 45 290 7.0 0.0 0.00 0.00 0.00 76 1015.0
20260504210317 45 290 7.0 0.0 0.00 0.00 0.00 76 1015.0
20260504204817 45 290 8.0 0.0 0.00 0.00 0.00 76 1016.0
20260504203318 45 290 8.0 0.0 0.00 0.00 0.00 76 1016.0
20260504201817 46 290 8.0 0.0 0.00 0.00 0.00 71 1015.0
20260504200317 46 290 8.0 0.0 0.00 0.00 0.00 71 1015.0
20260504194817 46 290 7.0 0.0 0.00 0.00 0.00 71 1015.0
20260504193317 46 290 7.0 0.0 0.00 0.00 0.00 71 1015.0
20260504191817 46 280 7.0 0.0 0.00 0.00 0.00 71 1015.0
20260504190317 46 280 7.0 0.0 0.00 0.00 0.00 71 1015.0
20260504184817 48 2.0 0.0 0.00 0.00 0.00 66 1015.0
20260504183327 48 2.0 0.0 0.00 0.00 0.00 66 1015.0
20260504181817 50 0 0.0 0.0 0.00 0.00 0.00 62 1015.0
20260504180317 50 0 0.0 0.0 0.00 0.00 0.00 62 1015.0
20260504174817 52 0 0.0 0.0 0.00 0.00 0.00 58 1015.0
20260504173317 52 0 0.0 0.0 0.00 0.00 0.00 58 1015.0
20260504171817 54 100 5.0 0.0 0.00 0.00 0.00 54 1015.0
20260504170317 54 100 5.0 0.0 0.00 0.00 0.00 54 1015.0
20260504160318 57 90 8.0 0.0 0.00 0.00 0.00 51 1015.0
20260504150317 63 60 14.0 0.0 0.00 0.00 0.00 37 1014.0
20260504140318 64 20 11.0 0.0 0.00 0.00 0.00 34 1014.0
20260504130317 63 20 14.0 0.0 0.00 0.00 0.00 37 1014.0
20260504120316 63 30 13.0 0.0 0.00 0.00 0.00 34 1015.0
20260504110317 64 30 14.0 0.0 0.00 0.00 0.00 37 1015.0
20260504100317 63 10 15.0 0.0 0.00 0.00 0.00 34 1015.0
20260504081817 59 10 10.0 0.0 0.00 0.00 0.00 45 1016.0
20260504080317 59 10 10.0 0.0 0.00 0.00 0.00 45 1016.0
20260504070318 57 360 9.0 0.0 0.00 0.00 0.00 48 1015.0
20260504050327 43 300 7.0 0.0 0.00 0.00 0.00 76 1015.0
20260504044817 41 290 9.0 0.0 0.00 0.00 0.00 81 1015.0
20260504043317 41 290 9.0 0.0 0.00 0.00 0.00 81 1015.0
20260504041817 39 290 10.0 0.0 0.00 0.00 0.00 87 1015.0
20260504040317 39 290 10.0 0.0 0.00 0.00 0.00 87 1015.0
20260504034817 39 290 10.0 0.0 0.00 0.00 0.00 81 1014.0
20260504033317 39 290 10.0 0.0 0.00 0.00 0.00 81 1014.0
20260504031817 39 290 10.0 0.0 0.00 0.00 0.00 81 1015.0
20260504030434 39 290 10.0 0.0 0.00 0.00 0.00 81 1015.0
20260504024818 39 290 10.0 0.0 0.00 0.00 0.00 81 1015.0
20260504023317 39 290 10.0 0.0 0.00 0.00 0.00 81 1015.0
20260504021816 41 290 10.0 0.0 0.00 0.00 0.00 76 1015.0
20260504020317 41 290 10.0 0.0 0.00 0.00 0.00 76 1015.0
20260504014817 41 290 9.0 0.0 0.00 0.00 0.00 70 1015.0
20260504013322 41 290 9.0 0.0 0.00 0.00 0.00 70 1015.0
20260504011933 41 290 8.0 0.0 0.00 0.00 0.00 70 1016.0